Location: JKWMA (FRAC)
(33.1803°N, 84.5512°W)
Time: 06:26:50
(UTC-04:00)

Hubble Space Telescope - Pass Details

Date: 23 March 2019
Orbit: 537 x 540 km, 28.5° (Epoch: 23 April)

Event Time Altitude Azimuth Distance (km) Brightness Sun altitude
Rises 21:07:23 0° 226° (SW) 2,668 4.8 -16.5°
Reaches altitude 10° 21:10:05 10° 209° (SSW) 1,780 3.6 -17.0°
Enters shadow 21:13:06 20° 162° (SSE) 1,267 2.4 -17.6°
